Ocean Spirit of Moray — MVXF5 — position and weather

sailwx.info

Track history (hours):
 
Tides and Currents Weather Stations Pressure Air Temp Water Temp Dewpoint Dewpoint Depression Visibility Wind Speed Wind Dir Waves Ship Positions

Ocean Spirit of Moray (United Kingdom)

Ship's website: http://www.gordonstoun.org.uk/

Last reported at 2014-Jul-24 17:22 UTC. Time now 2014-Jul-24 21:39 UTC.
Position N 51°27' W 002°37'.

Length 24 m; draft 3 m.

Type: Sailing vessel. MMSI: 232007590.

Date/timePositionNaut miles runAvg speedWind from/ knotsBaromVisibWave heightAir tempDewpointWater temp
2014-Jul-24 17:22N 51°27' W 002°37'2 1.9
2014-Jul-24 16:33N 51°28' W 002°39'5 5.2
2014-Jul-24 15:33N 51°30' W 002°47'12 6.1
2014-Jul-24 13:31N 51°23' W 003°03'90 2.9
2014-Jul-23 06:26N 50°36' W 005°05'3 3.9
2014-Jul-23 05:33N 50°33' W 005°08'5 4.8
2014-Jul-23 04:33N 50°35' W 005°15'  
2014-Jul-15 14:33N 50°38' W 001°51'10 5.2
2014-Jul-15 12:32N 50°41' W 001°36'4 4.2
2014-Jul-15 11:34N 50°43' W 001°30'0 0.1
2014-Jul-15 10:32N 50°43' W 001°30'0 0.0
2014-Jul-15 09:33N 50°43' W 001°30'0 0.0
2014-Jul-15 08:33N 50°43' W 001°30'0 0.0
2014-Jul-15 07:33N 50°43' W 001°30'0 0.0
2014-Jul-15 06:30N 50°43' W 001°30'0 0.0
2014-Jul-15 05:33N 50°43' W 001°30'0 0.0
2014-Jul-15 04:33N 50°43' W 001°30'0 0.0
2014-Jul-15 03:27N 50°43' W 001°30'0 0.0
2014-Jul-15 02:27N 50°43' W 001°30'0 0.0
2014-Jul-15 01:33N 50°43' W 001°30'0 0.0
2014-Jul-15 00:27N 50°43' W 001°30'0 0.0
2014-Jul-14 23:24N 50°43' W 001°30'0 0.0
2014-Jul-14 22:30N 50°43' W 001°30'0 0.0
2014-Jul-14 21:31N 50°43' W 001°30'0 0.0
2014-Jul-14 20:27N 50°43' W 001°30'0 0.0
2014-Jul-14 19:33N 50°43' W 001°30'0 0.0
2014-Jul-14 17:23N 50°43' W 001°30'  
Track history (hours):
 
Tides and Currents Weather Stations Pressure Air Temp Water Temp Dewpoint Dewpoint Depression Visibility Wind Speed Wind Dir Waves Ship Positions

Ocean Spirit of Moray (United Kingdom)

Ship's website: http://www.gordonstoun.org.uk/

Last reported at 2014-Jul-24 17:22 UTC. Time now 2014-Jul-24 21:39 UTC.
Position N 51°27' W 002°37'.

Length 24 m; draft 3 m.

Type: Sailing vessel. MMSI: 232007590.

Date/timePositionNaut miles runAvg speedWind from/ knotsBaromVisibWave heightAir tempDewpointWater temp
2014-Jul-24 17:22N 51°27' W 002°37'2 1.9
2014-Jul-24 16:33N 51°28' W 002°39'5 5.2
2014-Jul-24 15:33N 51°30' W 002°47'12 6.1
2014-Jul-24 13:31N 51°23' W 003°03'90 2.9
2014-Jul-23 06:26N 50°36' W 005°05'3 3.9
2014-Jul-23 05:33N 50°33' W 005°08'5 4.8
2014-Jul-23 04:33N 50°35' W 005°15'  
2014-Jul-15 14:33N 50°38' W 001°51'10 5.2
2014-Jul-15 12:32N 50°41' W 001°36'4 4.2
2014-Jul-15 11:34N 50°43' W 001°30'0 0.1
2014-Jul-15 10:32N 50°43' W 001°30'0 0.0
2014-Jul-15 09:33N 50°43' W 001°30'0 0.0
2014-Jul-15 08:33N 50°43' W 001°30'0 0.0
2014-Jul-15 07:33N 50°43' W 001°30'0 0.0
2014-Jul-15 06:30N 50°43' W 001°30'0 0.0
2014-Jul-15 05:33N 50°43' W 001°30'0 0.0
2014-Jul-15 04:33N 50°43' W 001°30'0 0.0
2014-Jul-15 03:27N 50°43' W 001°30'0 0.0
2014-Jul-15 02:27N 50°43' W 001°30'0 0.0
2014-Jul-15 01:33N 50°43' W 001°30'0 0.0
2014-Jul-15 00:27N 50°43' W 001°30'0 0.0
2014-Jul-14 23:24N 50°43' W 001°30'0 0.0
2014-Jul-14 22:30N 50°43' W 001°30'0 0.0
2014-Jul-14 21:31N 50°43' W 001°30'0 0.0
2014-Jul-14 20:27N 50°43' W 001°30'0 0.0
2014-Jul-14 19:33N 50°43' W 001°30'0 0.0
2014-Jul-14 17:23N 50°43' W 001°30'  

Dump ship's entire track history